Location: PSU-Greenbush Astrophysical Observatory
(37.5140°N, 94.9880°W)
Time: 21:21:16
(UTC-06:00)

Tiros 1 despin weight - All Passes

Search period start: 27 January 2020 00:00
Search period end: 06 February 2020 00:00
Orbit: 594 x 642 km, 48.2° (Epoch: 27 January)

Date Brightness Start Highest point End Pass type
(mag) Time Alt. Az. Time Alt. Az. Time Alt. Az.
27 Jan - 08:58:56 10° S 09:02:05 19° SE 09:05:15 10° E daylight
27 Jan - 10:38:45 10° WSW 10:43:13 75° NNW 10:47:46 10° NE daylight
27 Jan - 12:21:32 10° WNW 12:25:20 26° NNW 12:29:11 10° NE daylight
27 Jan - 14:04:24 10° NW 14:08:01 22° N 14:11:39 10° ENE daylight
27 Jan - 15:45:56 10° NW 15:50:24 46° NNE 15:54:54 10° E daylight
27 Jan - 17:27:38 10° WNW 17:31:56 38° SW 17:36:15 10° SSE daylight
28 Jan - 09:14:15 10° SSW 09:18:22 38° SE 09:22:33 10° ENE daylight
28 Jan - 10:55:36 10° W 10:59:54 44° NNW 11:04:15 10° NE daylight
28 Jan - 12:38:46 10° WNW 12:42:18 22° N 12:45:52 10° NE daylight
28 Jan - 14:21:04 10° NW 14:24:58 26° NNE 14:28:54 10° ENE daylight
28 Jan - 16:02:25 10° NW 16:07:04 79° NE 16:11:44 10° ESE daylight
28 Jan - 17:44:57 10° W 17:48:13 19° SW 17:51:30 10° S daylight
29 Jan - 07:52:08 10° SSE 07:53:52 12° SE 07:55:37 10° ESE daylight
29 Jan - 09:30:22 10° SW 09:34:47 77° SE 09:39:19 10° ENE daylight
29 Jan - 11:12:44 10° W 11:16:42 30° NNW 11:20:43 10° NE daylight
29 Jan - 12:55:49 10° NW 12:59:19 21° N 13:02:50 10° NE daylight
29 Jan - 14:37:34 10° NW 14:41:50 36° NNE 14:46:08 10° E daylight
29 Jan - 16:19:02 10° WNW 16:23:34 56° SW 16:28:08 10° SE daylight
30 Jan - 08:06:26 10° S 08:10:05 25° SE 08:13:46 10° ENE daylight
30 Jan - 09:46:59 10° WSW 09:51:22 58° NNW 09:55:51 10° NE daylight
30 Jan - 11:29:58 10° WNW 11:33:37 23° N 11:37:18 10° NE daylight
30 Jan - 13:12:37 10° NW 13:16:18 23° N 13:20:01 10° ENE daylight
30 Jan - 14:54:02 10° NW 14:58:34 57° NNE 15:03:09 10° ESE daylight
30 Jan - 16:35:59 10° WNW 16:39:56 28° SW 16:43:55 10° SSE daylight
31 Jan - 08:22:07 10° SW 08:26:25 52° SE 08:30:46 10° ENE daylight
31 Jan - 10:03:58 10° W 10:08:06 36° NNW 10:12:18 10° NE daylight
31 Jan - 11:47:09 10° NW 11:50:36 21° N 11:54:06 10° NE daylight
31 Jan - 13:29:12 10° NW 13:33:13 29° NNE 13:37:17 10° E daylight
31 Jan - 15:10:33 10° WNW 15:15:09 81° SW 15:19:49 10° SE daylight
31 Jan - 16:53:49 10° W 16:56:11 14° SW 16:58:33 10° SSW daylight
01 Feb - 06:59:01 10° S 07:01:50 17° SE 07:04:41 10° E visible
01 Feb - 08:38:29 10° WSW 08:42:55 82° NNW 08:47:25 10° NE daylight
01 Feb - 10:21:11 10° WNW 10:24:58 26° NNW 10:28:48 10° NE daylight
01 Feb - 12:04:06 10° NW 12:07:37 21° N 12:11:09 10° ENE daylight
01 Feb - 13:45:40 10° NW 13:50:02 43° NNE 13:54:26 10° E daylight
01 Feb - 15:27:16 10° WNW 15:31:37 42° SW 15:35:59 10° SSE daylight
02 Feb - 07:14:07 10° SSW 07:18:06 34° SE 07:22:08 10° ENE daylight
02 Feb - 08:55:17 10° WSW 08:59:33 47° NNW 09:03:54 10° NE daylight
02 Feb - 10:38:25 10° WNW 10:41:55 22° N 10:45:27 10° NE daylight
02 Feb - 12:20:48 10° NW 12:24:35 25° NNE 12:28:24 10° ENE daylight
02 Feb - 14:02:08 10° NW 14:06:43 72° NNE 14:11:20 10° ESE daylight
02 Feb - 15:44:28 10° W 15:47:55 21° SW 15:51:24 10° S daylight
03 Feb - 05:52:52 10° SE 05:53:38 10° SE 05:54:24 10° ESE visible
03 Feb - 07:30:08 10° SW 07:34:30 70° SE 07:38:57 10° ENE daylight
03 Feb - 09:12:22 10° W 09:16:20 31° NNW 09:20:22 10° NE daylight
03 Feb - 10:55:30 10° NW 10:58:55 21° N 11:02:22 10° NE daylight
03 Feb - 12:37:19 10° NW 12:41:28 34° NNE 12:45:38 10° E daylight
03 Feb - 14:18:43 10° WNW 14:23:14 62° SW 14:27:48 10° SE daylight
04 Feb - 06:06:23 10° S 06:09:50 23° SE 06:13:18 10° E visible
04 Feb - 07:46:41 10° WSW 07:51:03 64° NNW 07:55:30 10° NE daylight
04 Feb - 09:29:37 10° WNW 09:33:14 24° NNW 09:36:54 10° NE daylight
04 Feb - 11:12:20 10° NW 11:15:55 22° N 11:19:31 10° ENE daylight
04 Feb - 12:53:46 10° NW 12:58:12 52° NNE 13:02:42 10° ESE daylight
04 Feb - 14:35:35 10° WNW 14:39:38 31° SW 14:43:42 10° SSE daylight
05 Feb - 06:21:57 10° SSW 06:26:09 46° SE 06:30:25 10° ENE visible
05 Feb - 08:03:37 10° W 08:07:46 38° NNW 08:11:57 10° NE daylight
05 Feb - 09:46:49 10° NW 09:50:13 21° N 09:53:39 10° NE daylight
05 Feb - 11:28:57 10° NW 11:32:51 28° NNE 11:36:47 10° ENE daylight
05 Feb - 13:10:15 10° NW 13:14:49 89° SW 13:19:26 10° SE daylight
05 Feb - 14:53:12 10° W 14:55:54 15° SW 14:58:36 10° SSW daylight
